INTELSAT 33E DEB, 61997

Orbit data source: Space-Track

INTELSAT 33E DEB, 61997 is space debris in GEO originally from a launch on Wed, 24 Aug 2016 UTC launched from the French Guiana (FRGUI). Debris objects in space refer to the collection of defunct objects orbiting the Earth. Examples of debris include non-operational satellites, rocket bodies, and fragments generated from explosions, collisions, or faulty payload assembly.

Loading next visibility...
Identifier
61997, 2016-053P
Orbit
GEO
Last TLE update
2 days ago
Origin
Manufacturer
Boeing/ES
Mission
Spacecraft
Bus & Motor
Unknown
Mass
Unknown
Launch date (UTC)
2016-08-24 (9 years ago)
Launch vehicle
Unknown
Launch site
French Guiana (FRGUI)
Object type
Payload
Rocket body
Debris
Shape & HBR
Unknown
Radar Cross Section
RCS unknown

Expand to show TLE details & history

TLE from 2 days ago
0 INTELSAT 33E DEB
1 61997U 16053P   25187.55316105 -.00000122  00000-0  00000-0 0  9992
2 61997   0.6879  93.1999 0091780 258.1642   8.4744  1.01614204  2656
Epoch: 2025-07-06T13:16Z
TLE epoch observation values (Epoch: 2025-07-06T13:16:33.114Z)
Latitude
-0.69312°
Longitude
-123.91335°
Altitude
35,036.3 km
Speed
3.116 km/s
True Right ascension
23h 59m 59s
True Declination
0° 41' 33"
Sunlit
Object was in daylight at epoch
Visualization orbit readout
Latitude
-0.19368°
Longitude
163.33496°
Altitude
35,243.336 km
Speed
3.101 km/s
Apparent Right ascension
19h 03m 00s
Apparent Declination
-6° 31' 23"
Sunlit
Object is in daylight
Visualization observer readout
Local Sidereal Time
19:54:17
Azimuth
197.281° SSW
Elevation
42.076°
Doppler factor
1
Orbital elements
Apogee altitude
35,799.077 km
Perigee altitude
35,031.913 km
Semi-major axis
41,793.632 km
Eccentricity
0.00918
Inclination
0.6879°
RAAN
93.1999°
Arg. of periapsis
258.1642°
True anomaly
Unknown
Mean anomaly
8.4744°
Eccentric anomaly
Unknown
Mean motion
0.25403 °/min
Orbital period
1,417.18 mins
BSTAR
0
Loading historical data...
61997 neighbors
Loading maneuver chart data...
Loading SW <> Apogee altitude chart data...
Loading historical data...
Loading historical data...
Loading historical data...
Loading historical data...
Loading historical data...
Loading historical data...
Loading historical data...

INTELSAT 33E DEB Visibility forecast

Observer location: undefined°, undefined°

Span
Click to sort rows by Start time (UTC) header in descending order
Start Az.
Max El. time (UTC)
Max El. Az.
Max El.
End time (UTC)
End Az.
1440 mins2025-07-08 07:48:40.759Z197.275° SSW2025-07-09 00:13:40.759Z191.318° SSW34.791°2025-07-09 07:48:40.759Z189.924° SSW
|